K4DNM Weather Reports


Display with metric or nautical units.
time (UTC)temp
F
wind
direction
speed
MPH
gust
MPH
rain 1hr
in
rain 24hr
in
rain mn
in
humidity
%
barometer
mb
20260505192847 81 164 3.0 9.0 0.00 0.00 0.00 44 1014.3
20260505192347 81 146 3.0 9.0 0.00 0.00 0.00 45 1014.4
20260505191847 80 238 3.0 8.0 0.00 0.00 0.00 45 1014.5
20260505191347 80 140 3.0 9.0 0.00 0.00 0.00 47 1014.6
20260505190847 80 213 4.0 11.0 0.00 0.00 0.00 45 1014.7
20260505190348 80 206 4.0 11.0 0.00 0.00 0.00 46 1014.8
20260505185847 80 162 3.0 11.0 0.00 0.00 0.00 46 1014.9
20260505185605 80 80 3.0 10.0 0.00 0.00 0.00 47 1014.9
20260505185452 80 80 3.0 10.0 0.00 0.00 0.00 47 1014.9
20260505184847 80 71 4.0 10.0 0.00 0.00 0.00 45 1014.9
20260505184350 79 193 4.0 10.0 0.00 0.00 0.00 46 1015.0
20260505183844 79 194 5.0 9.0 0.00 0.00 0.00 47 1015.2
20260505183341 79 212 4.0 9.0 0.00 0.00 0.00 46 1015.3
20260505182841 80 157 2.0 8.0 0.00 0.00 0.00 46 1015.2
20260505182338 80 13 3.0 8.0 0.00 0.00 0.00 44 1015.2
20260505181842 80 242 4.0 10.0 0.00 0.00 0.00 49 1015.2
20260505181340 79 209 5.0 10.0 0.00 0.00 0.00 46 1015.3
20260505181321 79 144 5.0 9.0 0.00 0.00 0.00 46 1015.3
20260505180944 79 144 5.0 9.0 0.00 0.00 0.00 46 1015.3
20260505180339 79 95 4.0 9.0 0.00 0.00 0.00 46 1015.3
20260505180106 79 158 4.0 10.0 0.00 0.00 0.00 46 1015.3
20260505175946 79 158 4.0 10.0 0.00 0.00 0.00 46 1015.3
20260505175339 79 174 4.0 10.0 0.00 0.00 0.00 48 1015.4
20260505174841 79 129 3.0 9.0 0.00 0.00 0.00 50 1015.3
20260505174339 79 173 3.0 9.0 0.00 0.00 0.00 47 1015.4
20260505173838 79 215 3.0 7.0 0.00 0.00 0.00 46 1015.4
20260505173336 78 158 4.0 8.0 0.00 0.00 0.00 50 1015.4
20260505172838 78 175 4.0 9.0 0.00 0.00 0.00 49 1015.5
20260505172337 79 202 3.0 9.0 0.00 0.00 0.00 49 1015.5
20260505171839 78 0 3.0 9.0 0.00 0.00 0.00 51 1015.4
20260505171336 78 161 3.0 9.0 0.00 0.00 0.00 49 1015.5
20260505170838 78 161 4.0 11.0 0.00 0.00 0.00 51 1015.5
20260505170338 78 195 4.0 11.0 0.00 0.00 0.00 52 1015.6
20260505165839 78 9 3.0 8.0 0.00 0.00 0.00 52 1015.6
20260505165601 78 204 4.0 13.0 0.00 0.00 0.00 51 1015.7
20260505165443 78 204 4.0 13.0 0.00 0.00 0.00 51 1015.7
20260505164840 77 121 4.0 13.0 0.00 0.00 0.00 52 1015.8
20260505164335 78 171 3.0 8.0 0.00 0.00 0.00 52 1015.8
20260505163836 77 166 3.0 9.0 0.00 0.00 0.00 51 1015.8
20260505163332 76 340 4.0 10.0 0.00 0.00 0.00 54 1015.9
20260505162833 76 178 4.0 10.0 0.00 0.00 0.00 55 1015.8
20260505162332 76 193 5.0 10.0 0.00 0.00 0.00 56 1016.0
20260505161834 76 158 5.0 10.0 0.00 0.00 0.00 55 1016.0
20260505161332 77 178 4.0 10.0 0.00 0.00 0.00 54 1016.0
20260505160833 77 164 2.0 6.0 0.00 0.00 0.00 55 1016.1
20260505160332 77 153 2.0 5.0 0.00 0.00 0.00 53 1016.2
20260505153330 75 286 3.0 10.0 0.00 0.00 0.00 57 1016.3
20260505152833 75 189 4.0 10.0 0.00 0.00 0.00 55 1016.4
20260505152553 75 238 2.0 8.0 0.00 0.00 0.00 56 1016.4
20260505152437 75 238 2.0 8.0 0.00 0.00 0.00 56 1016.4
20260505151833 75 209 2.0 6.0 0.00 0.00 0.00 56 1016.5
20260505151334 74 240 2.0 5.0 0.00 0.00 0.00 58 1016.5
20260505150836 74 107 3.0 7.0 0.00 0.00 0.00 58 1016.5
20260505150336 73 182 3.0 8.0 0.00 0.00 0.00 57 1016.5
20260505140321 72 228 2.0 4.0 0.00 0.00 0.00 62 1016.4
20260505124815 66 184 2.0 7.0 0.00 0.00 0.00 70 1016.6
20260505124314 65 212 2.0 4.0 0.00 0.00 0.00 70 1016.6
20260505123811 65 177 2.0 4.0 0.00 0.00 0.00 71 1016.7
20260505123311 64 176 2.0 4.0 0.00 0.00 0.00 72 1016.6
20260505123040 64 237 1.0 4.0 0.00 0.00 0.00 70 1016.5
20260505122916 64 237 1.0 4.0 0.00 0.00 0.00 70 1016.5
20260505122312 63 59 1.0 3.0 0.00 0.00 0.00 72 1016.6
20260505122034 62 274 2.0 4.0 0.00 0.00 0.00 74 1016.6
20260505121916 62 274 2.0 4.0 0.00 0.00 0.00 74 1016.6
20260505121311 61 210 1.0 4.0 0.00 0.00 0.00 75 1016.6
20260505120811 60 206 2.0 4.0 0.00 0.00 0.00 77 1016.6
20260505120529 60 164 2.0 6.0 0.00 0.00 0.00 79 1016.5
20260505120417 60 164 2.0 6.0 0.00 0.00 0.00 79 1016.5
20260505115811 59 279 2.0 6.0 0.00 0.00 0.00 79 1016.5
20260505115532 59 235 2.0 6.0 0.00 0.00 0.00 79 1016.5
20260505115414 59 235 2.0 6.0 0.00 0.00 0.00 79 1016.5
20260505114807 59 241 2.0 4.0 0.00 0.00 0.00 80 1016.5
20260505114303 58 304 2.0 4.0 0.00 0.00 0.00 81 1016.5
20260505113803 58 195 1.0 4.0 0.00 0.00 0.00 81 1016.4
20260505113303 58 55 1.0 2.0 0.00 0.00 0.00 84 1016.4
20260505112804 56 285 1.0 2.0 0.00 0.00 0.00 86 1016.3
20260505112305 55 24 1.0 2.0 0.00 0.00 0.00 87 1016.3
20260505111803 54 111 1.0 1.0 0.00 0.00 0.00 91 1016.3
20260505111304 53 55 1.0 2.0 0.00 0.00 0.00 93 1016.2
20260505110803 52 298 1.0 2.0 0.00 0.00 0.00 93 1016.2
20260505110303 52 323 1.0 2.0 0.00 0.00 0.00 93 1016.1
20260505102220 51 331 1.0 2.0 0.00 0.00 0.00 92 1015.5
20260505101722 51 339 1.0 2.0 0.00 0.00 0.00 91 1015.5
20260505101221 51 320 1.0 2.0 0.00 0.00 0.00 91 1015.4
20260505100721 51 337 1.0 2.0 0.00 0.00 0.00 91 1015.4
20260505100221 51 336 1.0 2.0 0.00 0.00 0.00 91 1015.3
20260505095953 52 323 1.0 1.0 0.00 0.00 0.00 90 1015.3
20260505095825 52 323 1.0 1.0 0.00 0.00 0.00 90 1015.3
20260505095205 52 300 1.0 1.0 0.00 0.00 0.00 89 1015.3
20260505094706 52 323 1.0 2.0 0.00 0.00 0.00 89 1015.3
20260505094208 52 313 1.0 2.0 0.00 0.00 0.00 89 1015.3
20260505093708 53 310 1.0 2.0 0.00 0.00 0.00 89 1015.3
20260505093206 53 341 1.0 2.0 0.00 0.00 0.00 88 1015.3
20260505092705 53 315 1.0 2.0 0.00 0.00 0.00 88 1015.2
20260505092206 53 163 1.0 2.0 0.00 0.00 0.00 87 1015.2
20260505091705 54 302 1.0 2.0 0.00 0.00 0.00 86 1015.2
20260505091206 54 319 1.0 2.0 0.00 0.00 0.00 86 1015.1
20260505090705 54 321 1.0 1.0 0.00 0.00 0.00 85 1015.0
20260505090435 55 318 1.0 2.0 0.00 0.00 0.00 84 1015.0
20260505090310 55 318 1.0 2.0 0.00 0.00 0.00 84 1015.0
20260505085706 55 338 1.0 2.0 0.00 0.00 0.00 84 1015.1
20260505085206 55 308 1.0 1.0 0.00 0.00 0.00 83 1015.0
20260505084705 55 146 1.0 1.0 0.00 0.00 0.00 82 1015.0
20260505084153 56 325 1.0 1.0 0.00 0.00 0.00 81 1015.0
20260505083653 56 318 1.0 2.0 0.00 0.00 0.00 81 1015.0
20260505083137 56 298 1.0 3.0 0.00 0.00 0.00 80 1015.0
20260505082638 57 302 1.0 3.0 0.00 0.00 0.00 80 1014.9
20260505082406 57 264 1.0 2.0 0.00 0.00 0.00 79 1014.9
20260505082242 57 264 1.0 2.0 0.00 0.00 0.00 79 1014.9
20260505081639 57 331 1.0 2.0 0.00 0.00 0.00 78 1014.9
20260505081358 58 354 1.0 3.0 0.00 0.00 0.00 77 1014.8
20260505081242 58 354 1.0 3.0 0.00 0.00 0.00 77 1014.8
20260505080638 58 280 2.0 4.0 0.00 0.00 0.00 77 1014.8
20260505080138 58 276 2.0 4.0 0.00 0.00 0.00 77 1014.8
20260505075857 58 270 2.0 3.0 0.00 0.00 0.00 76 1014.8
20260505075743 58 270 2.0 3.0 0.00 0.00 0.00 76 1014.8
20260505075125 58 260 2.0 3.0 0.00 0.00 0.00 76 1014.8
20260505074625 58 260 2.0 3.0 0.00 0.00 0.00 76 1014.7
20260505074109 58 257 2.0 3.0 0.00 0.00 0.00 75 1014.7
20260505073838 59 247 2.0 3.0 0.00 0.00 0.00 75 1014.8
20260505073714 59 247 2.0 3.0 0.00 0.00 0.00 75 1014.8
20260505073329 59 224 2.0 5.0 0.00 0.00 0.00 75 1014.7
20260505073213 59 224 2.0 5.0 0.00 0.00 0.00 75 1014.7
20260505072607 59 184 2.0 5.0 0.00 0.00 0.00 74 1014.7
20260505072105 59 252 2.0 4.0 0.00 0.00 0.00 74 1014.7
20260505071605 59 211 2.0 5.0 0.00 0.00 0.00 73 1014.7
20260505071106 59 246 2.0 5.0 0.00 0.00 0.00 73 1014.7
20260505070604 59 117 2.0 5.0 0.00 0.00 0.00 73 1014.7
20260505070110 59 151 2.0 6.0 0.00 0.00 0.00 72 1014.7
20260505065604 59 247 2.0 6.0 0.00 0.00 0.00 72 1014.6
20260505065104 60 193 2.0 6.0 0.00 0.00 0.00 72 1014.6
20260505064830 60 95 2.0 6.0 0.00 0.00 0.00 72 1014.6
20260505064710 60 95 2.0 6.0 0.00 0.00 0.00 72 1014.6
20260505064105 60 213 2.0 6.0 0.00 0.00 0.00 72 1014.6
20260505063824 60 175 2.0 6.0 0.00 0.00 0.00 72 1014.6
20260505063709 60 175 2.0 6.0 0.00 0.00 0.00 72 1014.6
20260505063101 60 255 2.0 6.0 0.00 0.00 0.00 71 1014.6
20260505062602 60 232 2.0 6.0 0.00 0.00 0.00 71 1014.6
20260505062330 60 233 2.0 5.0 0.00 0.00 0.00 70 1014.6
20260505062205 60 233 2.0 5.0 0.00 0.00 0.00 70 1014.6
20260505061601 60 237 2.0 5.0 0.00 0.00 0.00 70 1014.6
20260505061102 60 151 2.0 7.0 0.00 0.00 0.00 70 1014.7
20260505060602 60 246 2.0 7.0 0.00 0.00 0.00 70 1014.7
20260505055602 61 258 2.0 7.0 0.00 0.00 0.00 70 1014.8
20260505055102 61 172 2.0 7.0 0.00 0.00 0.00 69 1014.8
20260505054558 61 152 2.0 6.0 0.00 0.00 0.00 69 1014.9
20260505054100 61 221 2.0 7.0 0.00 0.00 0.00 69 1014.9
20260505053600 61 250 2.0 7.0 0.00 0.00 0.00 68 1015.0
20260505053059 61 130 2.0 6.0 0.00 0.00 0.00 69 1015.0
20260505052816 61 187 2.0 6.0 0.00 0.00 0.00 69 1015.0
20260505052703 61 187 2.0 6.0 0.00 0.00 0.00 69 1015.0
20260505052059 62 255 2.0 6.0 0.00 0.00 0.00 68 1015.0
20260505051601 62 165 2.0 6.0 0.00 0.00 0.00 68 1015.0
20260505051059 62 186 2.0 6.0 0.00 0.00 0.00 68 1015.1
20260505050601 62 155 3.0 6.0 0.00 0.00 0.00 68 1015.1
20260505041556 63 224 3.0 9.0 0.00 0.00 0.00 67 1015.0
20260505041055 63 188 2.0 9.0 0.00 0.00 0.00 67 1015.0
20260505040820 63 200 2.0 9.0 0.00 0.00 0.00 67 1015.0
20260505040659 63 200 2.0 9.0 0.00 0.00 0.00 67 1015.0
20260505040055 63 201 3.0 7.0 0.00 0.00 0.00 66 1015.0
20260505035555 63 214 3.0 7.0 0.00 0.00 0.00 66 1015.0
20260505035054 63 211 3.0 6.0 0.00 0.00 0.00 66 1015.0
20260505034554 64 174 3.0 6.0 0.00 0.00 0.00 65 1015.0
20260505034056 64 185 2.0 6.0 0.00 0.00 0.00 65 1015.0
20260505033553 64 140 3.0 7.0 0.00 0.00 0.00 65 1015.0
20260505033052 64 228 3.0 9.0 0.00 0.00 0.00 64 1015.0
20260505032552 64 183 3.0 9.0 0.00 0.00 0.00 64 1015.0
20260505032052 64 214 3.0 10.0 0.00 0.00 0.00 65 1015.0
20260505031552 64 42 2.0 10.0 0.00 0.00 0.00 64 1014.9
20260505031053 64 190 2.0 6.0 0.00 0.00 0.00 64 1014.9
20260505030552 65 267 3.0 7.0 0.00 0.00 0.00 64 1014.9
20260505030052 65 75 3.0 7.0 0.00 0.00 0.00 63 1015.0
20260505025552 65 214 3.0 7.0 0.00 0.00 0.00 63 1014.9
20260505025053 65 225 3.0 7.0 0.00 0.00 0.00 63 1015.0
20260505024553 65 184 3.0 7.0 0.00 0.00 0.00 63 1015.0
20260505024311 65 218 3.0 9.0 0.00 0.00 0.00 63 1014.9
20260505024154 65 218 3.0 9.0 0.00 0.00 0.00 63 1014.9
20260505023549 66 218 3.0 9.0 0.00 0.00 0.00 63 1014.9
20260505023047 66 200 4.0 9.0 0.00 0.00 0.00 62 1014.8
20260505022547 66 210 4.0 8.0 0.00 0.00 0.00 62 1014.8
20260505022047 66 230 4.0 8.0 0.00 0.00 0.00 62 1014.8
20260505021547 67 193 4.0 10.0 0.00 0.00 0.00 61 1014.7
20260505021047 67 191 3.0 10.0 0.00 0.00 0.00 62 1014.7
20260505020548 67 168 3.0 9.0 0.00 0.00 0.00 62 1014.6
20260505020047 67 241 4.0 9.0 0.00 0.00 0.00 62 1014.7
20260505015547 67 159 4.0 9.0 0.00 0.00 0.00 62 1014.6
20260505015047 67 162 4.0 9.0 0.00 0.00 0.00 61 1014.6
20260505014815 68 167 3.0 9.0 0.00 0.00 0.00 61 1014.5
20260505014652 68 167 3.0 9.0 0.00 0.00 0.00 61 1014.5
20260505014046 68 174 4.0 9.0 0.00 0.00 0.00 61 1014.4
20260505013544 68 183 4.0 9.0 0.00 0.00 0.00 60 1014.4
20260505013045 68 176 4.0 8.0 0.00 0.00 0.00 60 1014.3
20260505012546 69 88 4.0 10.0 0.00 0.00 0.00 59 1014.2
20260505012046 69 208 4.0 10.0 0.00 0.00 0.00 59 1014.2
20260505011546 69 162 4.0 11.0 0.00 0.00 0.00 58 1014.1
20260505011046 69 189 4.0 11.0 0.00 0.00 0.00 57 1014.0
20260505010547 69 191 4.0 11.0 0.00 0.00 0.00 55 1013.8
20260505010308 69 169 4.0 11.0 0.00 0.00 0.00 53 1013.7
20260505010151 69 169 4.0 11.0 0.00 0.00 0.00 53 1013.7
20260505005545 69 149 4.0 11.0 0.00 0.00 0.00 50 1013.6
20260505005046 69 169 3.0 8.0 0.00 0.00 0.00 48 1013.4
20260505004543 69 156 2.0 6.0 0.00 0.00 0.00 48 1013.4
20260505004041 69 240 1.0 4.0 0.00 0.00 0.00 48 1013.2
20260505003540 69 180 2.0 5.0 0.00 0.00 0.00 48 1013.2
20260505003040 69 172 1.0 5.0 0.00 0.00 0.00 48 1013.2
20260505002542 69 186 1.0 3.0 0.00 0.00 0.00 47 1013.2
20260505002040 70 0 1.0 3.0 0.00 0.00 0.00 47 1013.2
20260505001541 70 228 1.0 2.0 0.00 0.00 0.00 46 1013.1
20260505001041 71 161 1.0 3.0 0.00 0.00 0.00 46 1013.0
20260505000542 71 185 1.0 3.0 0.00 0.00 0.00 45 1013.0
20260505000302 72 0 1.0 3.0 0.00 0.00 0.00 44 1013.0
20260505000146 72 0 1.0 3.0 0.00 0.00 0.00 44 1013.0
20260504235542 72 201 2.0 4.0 0.00 0.00 0.00 44 1012.9
20260504235042 72 157 2.0 4.0 0.00 0.00 0.00 43 1012.9
20260504234539 73 201 2.0 4.0 0.00 0.00 0.00 42 1012.8
20260504234037 73 164 2.0 5.0 0.00 0.00 0.00 42 1012.7
20260504233537 73 195 1.0 5.0 0.00 0.00 0.00 42 1012.7
20260504233258 73 0 1.0 7.0 0.00 0.00 0.00 42 1012.6
20260504233142 73 0 1.0 7.0 0.00 0.00 0.00 42 1012.6
20260504232536 74 227 2.0 7.0 0.00 0.00 0.00 41 1012.6
20260504232036 74 163 2.0 7.0 0.00 0.00 0.00 41 1012.5
20260504231536 74 180 3.0 7.0 0.00 0.00 0.00 41 1012.5
20260504231037 74 135 2.0 6.0 0.00 0.00 0.00 40 1012.5
20260504230802 75 170 2.0 7.0 0.00 0.00 0.00 40 1012.4
20260504230641 75 170 2.0 7.0 0.00 0.00 0.00 40 1012.4
20260504230036 75 157 3.0 9.0 0.00 0.00 0.00 39 1012.5
20260504225533 75 141 4.0 9.0 0.00 0.00 0.00 38 1012.5
20260504225252 75 178 3.0 9.0 0.00 0.00 0.00 38 1012.4
20260504225136 75 178 3.0 9.0 0.00 0.00 0.00 38 1012.4
20260504224529 76 145 2.0 7.0 0.00 0.00 0.00 38 1012.5
20260504224031 76 158 3.0 11.0 0.00 0.00 0.00 38 1012.5
20260504223530 76 238 4.0 11.0 0.00 0.00 0.00 38 1012.5
20260504223030 76 169 4.0 9.0 0.00 0.00 0.00 38 1012.5
20260504222529 76 185 4.0 11.0 0.00 0.00 0.00 37 1012.5
20260504222030 76 199 3.0 11.0 0.00 0.00 0.00 37 1012.5
20260504221530 77 163 3.0 8.0 0.00 0.00 0.00 38 1012.5
20260504221252 77 198 4.0 8.0 0.00 0.00 0.00 36 1012.5
20260504221134 77 198 4.0 8.0 0.00 0.00 0.00 36 1012.5
20260504220727 77 194 4.0 12.0 0.00 0.00 0.00 35 1012.4
20260504220609 77 187 3.0 7.0 0.00 0.00 0.00 36 1012.5
20260504220121 77 200 4.0 8.0 0.00 0.00 0.00 35 1012.5
20260504215635 77 194 4.0 12.0 0.00 0.00 0.00 35 1012.4
20260504215031 77 166 4.0 12.0 0.00 0.00 0.00 36 1012.5
20260504214528 77 199 4.0 11.0 0.00 0.00 0.00 35 1012.5
20260504214027 78 198 4.0 11.0 0.00 0.00 0.00 35 1012.5
20260504213751 78 193 4.0 11.0 0.00 0.00 0.00 34 1012.5
20260504213632 78 193 4.0 11.0 0.00 0.00 0.00 34 1012.5
20260504213028 78 225 4.0 11.0 0.00 0.00 0.00 34 1012.6
20260504212528 78 225 3.0 10.0 0.00 0.00 0.00 35 1012.5
20260504212028 79 233 2.0 8.0 0.00 0.00 0.00 33 1012.5
20260504211748 78 150 3.0 8.0 0.00 0.00 0.00 35 1012.6
20260504211632 78 150 3.0 8.0 0.00 0.00 0.00 35 1012.6
20260504211029 78 333 3.0 8.0 0.00 0.00 0.00 35 1012.5
20260504210528 78 214 3.0 8.0 0.00 0.00 0.00 35 1012.5
20260504210028 78 129 3.0 9.0 0.00 0.00 0.00 35 1012.6
20260504205527 78 144 4.0 10.0 0.00 0.00 0.00 34 1012.5
20260504205023 78 188 4.0 10.0 0.00 0.00 0.00 34 1012.5
20260504204524 78 179 4.0 12.0 0.00 0.00 0.00 36 1012.5
20260504204023 79 277 4.0 12.0 0.00 0.00 0.00 34 1012.6
20260504203523 79 265 3.0 9.0 0.00 0.00 0.00 35 1012.7
20260504203024 79 160 4.0 10.0 0.00 0.00 0.00 35 1012.7
20260504202524 78 162 5.0 11.0 0.00 0.00 0.00 35 1012.8
20260504202024 78 162 5.0 11.0 0.00 0.00 0.00 35 1012.8
20260504201524 79 156 5.0 13.0 0.00 0.00 0.00 34 1012.7
20260504201025 80 207 4.0 13.0 0.00 0.00 0.00 34 1012.9
20260504200525 80 153 3.0 9.0 0.00 0.00 0.00 35 1012.8
20260504200025 79 157 3.0 8.0 0.00 0.00 0.00 35 1012.8
20260504195524 80 190 3.0 7.0 0.00 0.00 0.00 36 1012.9
20260504195244 80 141 3.0 7.0 0.00 0.00 0.00 33 1012.8
20260504195124 80 141 3.0 7.0 0.00 0.00 0.00 33 1012.8
20260504194521 80 180 3.0 7.0 0.00 0.00 0.00 33 1012.9
20260504194021 80 199 3.0 9.0 0.00 0.00 0.00 31 1012.9
20260504193521 80 164 3.0 9.0 0.00 0.00 0.00 31 1013.0